TimeEDT,TemperatureF,Dew PointF,Humidity,Sea Level PressureIn,VisibilityMPH,Wind Direction,Wind SpeedMPH,Gust SpeedMPH,PrecipitationIn,Events,Conditions,WindDirDegrees,DateUTC
12:53 AM,50.0,48.9,96,30.20,0.2,SE,3.5,-,N/A,Fog,Fog,140,2013-10-31 04:53:00
1:53 AM,50.0,50.0,100,30.19,0.2,Calm,Calm,-,N/A,Fog,Fog,0,2013-10-31 05:53:00
2:23 AM,50.0,50.0,100,30.19,0.2,Calm,Calm,-,N/A,Fog,Fog,0,2013-10-31 06:23:00
2:49 AM,51.8,50.0,94,30.19,0.2,Calm,Calm,-,N/A,Fog,Fog,0,2013-10-31 06:49:00
2:53 AM,51.1,50.0,96,30.19,0.2,Calm,Calm,-,N/A,Fog,Fog,0,2013-10-31 06:53:00
3:53 AM,51.1,51.1,100,30.16,0.2,East,4.6,-,N/A,Fog,Fog,90,2013-10-31 07:53:00
4:12 AM,51.8,51.8,100,30.15,0.2,ESE,3.5,-,N/A,Fog,Fog,110,2013-10-31 08:12:00
4:26 AM,51.8,51.8,100,30.14,0.8,East,4.6,-,N/A,,Mist,100,2013-10-31 08:26:00
4:51 AM,51.8,51.8,100,30.15,1.0,Calm,Calm,-,N/A,,Overcast,0,2013-10-31 08:51:00
4:53 AM,52.0,51.1,97,30.14,1.0,Calm,Calm,-,N/A,,Overcast,0,2013-10-31 08:53:00
5:07 AM,51.8,51.8,100,30.14,0.8,Calm,Calm,-,N/A,,Overcast,0,2013-10-31 09:07:00
5:35 AM,51.8,51.8,100,30.13,0.8,East,3.5,-,N/A,,Overcast,100,2013-10-31 09:35:00
5:46 AM,51.8,51.8,100,30.13,1.0,East,3.5,-,N/A,,Overcast,100,2013-10-31 09:46:00
5:53 AM,51.1,51.1,100,30.14,1.0,Calm,Calm,-,N/A,,Overcast,0,2013-10-31 09:53:00
6:27 AM,51.8,51.8,100,30.12,1.5,Calm,Calm,-,N/A,,Overcast,0,2013-10-31 10:27:00
6:42 AM,51.8,51.8,100,30.13,1.5,Calm,Calm,-,N/A,,Overcast,0,2013-10-31 10:42:00
6:53 AM,51.1,51.1,100,30.13,1.5,Calm,Calm,-,N/A,,Overcast,0,2013-10-31 10:53:00
7:53 AM,52.0,51.1,97,30.13,1.0,ENE,3.5,-,0.01,,Overcast,60,2013-10-31 11:53:00
8:46 AM,53.6,51.8,94,30.12,1.2,ESE,3.5,-,N/A,,Overcast,110,2013-10-31 12:46:00
8:53 AM,54.0,53.1,97,30.12,1.2,SE,3.5,-,N/A,,Overcast,130,2013-10-31 12:53:00
9:53 AM,55.0,54.0,96,30.10,1.8,SE,4.6,-,N/A,,Overcast,130,2013-10-31 13:53:00
10:00 AM,55.4,53.6,94,30.09,1.8,SE,5.8,-,N/A,,Overcast,130,2013-10-31 14:00:00
10:30 AM,55.4,55.4,100,30.08,2.0,Calm,Calm,-,N/A,,Overcast,0,2013-10-31 14:30:00
10:48 AM,57.2,55.4,94,30.08,2.0,Calm,Calm,-,N/A,,Overcast,0,2013-10-31 14:48:00
10:53 AM,57.0,54.0,89,30.07,2.0,East,3.5,-,N/A,,Overcast,100,2013-10-31 14:53:00
11:53 AM,59.0,55.9,90,30.05,3.0,South,3.5,-,N/A,,Mostly Cloudy,170,2013-10-31 15:53:00
12:30 PM,60.8,55.4,82,30.02,3.0,South,3.5,-,N/A,,Overcast,180,2013-10-31 16:30:00
12:53 PM,61.0,57.0,87,30.01,4.0,South,6.9,-,N/A,,Mostly Cloudy,180,2013-10-31 16:53:00
1:53 PM,63.0,57.0,81,29.98,4.0,South,8.1,-,N/A,,Haze,180,2013-10-31 17:53:00
2:53 PM,64.0,57.0,78,29.96,5.0,South,10.4,-,N/A,,Haze,180,2013-10-31 18:53:00
3:53 PM,64.0,57.0,78,29.92,6.0,South,9.2,18.4,0.00,,Haze,180,2013-10-31 19:53:00
4:53 PM,64.0,57.0,78,29.91,7.0,South,8.1,-,0.00,,Overcast,170,2013-10-31 20:53:00
5:53 PM,64.0,57.0,78,29.89,8.0,SSW,9.2,-,N/A,,Mostly Cloudy,200,2013-10-31 21:53:00
6:53 PM,64.9,55.9,73,29.88,10.0,South,12.7,-,N/A,,Clear,180,2013-10-31 22:53:00
7:53 PM,64.9,57.0,75,29.88,10.0,South,13.8,25.3,0.00,Rain,Light Rain,180,2013-10-31 23:53:00
8:53 PM,62.1,57.9,86,29.85,9.0,South,12.7,-,0.02,Rain,Light Rain,190,2013-11-01 00:53:00
10:53 PM,63.0,57.9,84,29.80,9.0,South,9.2,18.4,0.01,,Overcast,180,2013-11-01 02:53:00
11:53 PM,63.0,57.9,84,29.77,10.0,South,10.4,-,0.00,,Partly Cloudy,190,2013-11-01 03:53:00